• In Deutschland
  • Länderverzeichnis
  • Für 7 Tage
  • Wassertemperatur
  • Satellitenkarten
  • Wetterkarte
  • Widgets
  • user-avatar
    Anmelden

    Stündliche Wetter Arnsberg

    Heute, 22 September, Samstag

    Zeit Temperatur Niederschläge Wind Luftdruck Luftfeuchtigkeit
    00:00 +10°C° 0 mm 6 m/S 736 mmHg 65%
    01:00 +11°C° 0 mm 4 m/S 736 mmHg 71%
    02:00 +10°C° 0 mm 4 m/S 736 mmHg 73%
    03:00 +9°C° 0 mm 5 m/S 737 mmHg 75%
    04:00 +9°C° 0 mm 5 m/S 737 mmHg 77%
    05:00 +10°C° 0 mm 4 m/S 737 mmHg 78%
    06:00 +10°C° 0 mm 4 m/S 738 mmHg 79%
    07:00 +8°C° 0 mm 4 m/S 738 mmHg 79%
    08:00 +11°C° 0 mm 4 m/S 738 mmHg 73%
    09:00 +12°C° 0 mm 5 m/S 738 mmHg 66%
    10:00 +13°C° 0 mm 5 m/S 739 mmHg 60%
    11:00 +14°C° 0 mm 5 m/S 738 mmHg 56%
    12:00 +15°C° 0 mm 5 m/S 738 mmHg 53%
    13:00 +16°C° 0 mm 5 m/S 738 mmHg 49%
    14:00 +15°C° 0.2 mm 5 m/S 738 mmHg 57%
    15:00 +14°C° 0.2 mm 5 m/S 738 mmHg 65%
    16:00 +12°C° 0.2 mm 4 m/S 738 mmHg 73%
    17:00 +12°C° 0.2 mm 4 m/S 738 mmHg 77%
    18:00 +11°C° 0.2 mm 3 m/S 738 mmHg 81%
    19:00 +10°C° 0.2 mm 2 m/S 738 mmHg 85%
    20:00 +10°C° 0.2 mm 2 m/S 738 mmHg 86%
    21:00 +10°C° 0.2 mm 2 m/S 738 mmHg 87%
    22:00 +10°C° 0.2 mm 2 m/S 738 mmHg 89%
    23:00 +10°C° 0.3 mm 2 m/S 737 mmHg 90%

    Morgen, 23 September, Sonntag

    Zeit Temperatur Niederschläge Wind Luftdruck Luftfeuchtigkeit
    00:00 +10°C° 0.3 mm 2 m/S 737 mmHg 90%
    01:00 +10°C° 0.3 mm 2 m/S 737 mmHg 91%
    02:00 +10°C° 0.2 mm 2 m/S 736 mmHg 91%
    03:00 +11°C° 0.2 mm 1 m/S 736 mmHg 91%
    04:00 +11°C° 0.2 mm 1 m/S 735 mmHg 92%
    05:00 +11°C° 0.4 mm 1 m/S 735 mmHg 92%
    06:00 +11°C° 0.4 mm 1 m/S 734 mmHg 92%
    07:00 +11°C° 0.4 mm 1 m/S 734 mmHg 92%
    08:00 +11°C° 0.3 mm 1 m/S 733 mmHg 92%
    09:00 +11°C° 0.3 mm 1 m/S 733 mmHg 91%
    10:00 +11°C° 0.3 mm 1 m/S 733 mmHg 91%
    11:00 +10°C° 0.9 mm 2 m/S 732 mmHg 92%
    12:00 +10°C° 0.9 mm 2 m/S 732 mmHg 93%
    13:00 +10°C° 0.9 mm 3 m/S 731 mmHg 93%
    14:00 +10°C° 4.9 mm 3 m/S 731 mmHg 93%
    15:00 +9°C° 4.9 mm 3 m/S 731 mmHg 93%
    16:00 +7°C° 4.9 mm 4 m/S 731 mmHg 93%
    17:00 +7°C° 0.6 mm 4 m/S 732 mmHg 93%
    18:00 +7°C° 0.6 mm 4 m/S 733 mmHg 93%
    19:00 +7°C° 0.6 mm 4 m/S 734 mmHg 93%
    20:00 +7°C° 0.4 mm 4 m/S 735 mmHg 92%
    21:00 +7°C° 0.4 mm 4 m/S 736 mmHg 92%
    22:00 +7°C° 0.4 mm 4 m/S 737 mmHg 92%
    23:00 +7°C° 0.1 mm 4 m/S 738 mmHg 91%

    übermorgen, 24 September, Montag

    Zeit Temperatur Niederschläge Wind Luftdruck Luftfeuchtigkeit
    00:00 +7°C° 0.1 mm 4 m/S 739 mmHg 91%
    01:00 +6°C° 0.1 mm 4 m/S 740 mmHg 90%
    02:00 +7°C° 0 mm 3 m/S 741 mmHg 90%
    03:00 +5°C° 0 mm 3 m/S 742 mmHg 90%
    04:00 +5°C° 0 mm 3 m/S 743 mmHg 90%
    05:00 +5°C° 0 mm 3 m/S 743 mmHg 90%
    06:00 +5°C° 0 mm 3 m/S 744 mmHg 90%
    07:00 +5°C° 0 mm 3 m/S 745 mmHg 89%
    08:00 +7°C° 0 mm 3 m/S 745 mmHg 82%
    09:00 +8°C° 0 mm 4 m/S 746 mmHg 74%
    10:00 +11°C° 0 mm 4 m/S 747 mmHg 66%
    11:00 +10°C° 0.2 mm 5 m/S 747 mmHg 65%
    12:00 +10°C° 0.2 mm 5 m/S 747 mmHg 63%
    13:00 +12°C° 0.2 mm 5 m/S 747 mmHg 62%
    14:00 +12°C° 0.2 mm 5 m/S 747 mmHg 61%
    15:00 +12°C° 0.2 mm 5 m/S 748 mmHg 60%
    16:00 +12°C° 0.2 mm 5 m/S 748 mmHg 59%
    17:00 +11°C° 0 mm 4 m/S 748 mmHg 64%
    18:00 +9°C° 0 mm 3 m/S 748 mmHg 69%
    19:00 +8°C° 0 mm 2 m/S 749 mmHg 74%
    20:00 +7°C° 0 mm 2 m/S 749 mmHg 77%
    21:00 +7°C° 0 mm 2 m/S 750 mmHg 79%
    22:00 +7°C° 0 mm 1 m/S 750 mmHg 82%
    23:00 +7°C° 0 mm 1 m/S 750 mmHg 83%

    25 September, Dienstag

    Zeit Temperatur Niederschläge Wind Luftdruck Luftfeuchtigkeit
    00:00 +6°C° 0 mm 1 m/S 751 mmHg 85%
    01:00 +6°C° 0 mm 1 m/S 751 mmHg 86%
    02:00 +6°C° 0 mm 1 m/S 751 mmHg 86%
    03:00 +5°C° 0 mm 1 m/S 751 mmHg 87%
    04:00 +5°C° 0 mm 1 m/S 751 mmHg 88%
    05:00 +5°C° 0 mm 1 m/S 752 mmHg 87%
    06:00 +5°C° 0 mm 1 m/S 752 mmHg 86%
    07:00 +4°C° 0 mm 0 m/S 752 mmHg 85%
    08:00 +7°C° 0 mm 1 m/S 752 mmHg 77%
    09:00 +9°C° 0 mm 1 m/S 753 mmHg 68%
    10:00 +11°C° 0 mm 1 m/S 753 mmHg 59%
    11:00 +12°C° 0 mm 1 m/S 753 mmHg 55%
    12:00 +13°C° 0 mm 1 m/S 753 mmHg 51%
    13:00 +14°C° 0 mm 2 m/S 752 mmHg 47%
    14:00 +14°C° 0 mm 2 m/S 752 mmHg 47%
    15:00 +14°C° 0 mm 2 m/S 752 mmHg 48%
    16:00 +14°C° 0 mm 2 m/S 751 mmHg 48%
    17:00 +13°C° 0 mm 2 m/S 751 mmHg 54%
    18:00 +11°C° 0 mm 1 m/S 751 mmHg 61%
    19:00 +9°C° 0 mm 1 m/S 751 mmHg 67%
    20:00 +8°C° 0 mm 2 m/S 751 mmHg 68%
    21:00 +7°C° 0 mm 2 m/S 751 mmHg 68%
    22:00 +6°C° 0 mm 2 m/S 751 mmHg 69%
    23:00 +6°C° 0 mm 2 m/S 751 mmHg 68%

    26 September, Mittwoch

    Zeit Temperatur Niederschläge Wind Luftdruck Luftfeuchtigkeit
    00:00 +6°C° 0 mm 2 m/S 750 mmHg 67%
    01:00 +5°C° 0 mm 2 m/S 750 mmHg 66%
    02:00 +5°C° 0 mm 2 m/S 750 mmHg 66%
    03:00 +5°C° 0 mm 2 m/S 749 mmHg 66%
    04:00 +4°C° 0 mm 2 m/S 749 mmHg 66%
    05:00 +5°C° 0 mm 2 m/S 749 mmHg 66%
    06:00 +6°C° 0 mm 1 m/S 749 mmHg 66%
    07:00 +6°C° 0 mm 1 m/S 749 mmHg 66%
    08:00 +7°C° 0 mm 2 m/S 748 mmHg 59%
    09:00 +9°C° 0 mm 2 m/S 748 mmHg 53%
    10:00 +13°C° 0 mm 2 m/S 748 mmHg 46%
    11:00 +14°C° 0 mm 2 m/S 748 mmHg 43%
    12:00 +16°C° 0 mm 2 m/S 748 mmHg 40%
    13:00 +17°C° 0 mm 2 m/S 747 mmHg 36%
    14:00 +17°C° 0 mm 2 m/S 747 mmHg 38%
    15:00 +17°C° 0 mm 2 m/S 746 mmHg 39%
    16:00 +17°C° 0 mm 2 m/S 746 mmHg 40%
    17:00 +15°C° 0 mm 2 m/S 746 mmHg 46%
    18:00 +13°C° 0 mm 2 m/S 746 mmHg 52%
    19:00 +11°C° 0 mm 1 m/S 746 mmHg 58%
    20:00 +11°C° 0 mm 1 m/S 746 mmHg 58%
    21:00 +10°C° 0 mm 1 m/S 746 mmHg 58%
    22:00 +10°C° 0 mm 1 m/S 746 mmHg 58%
    23:00 +8°C° 0 mm 2 m/S 746 mmHg 59%

    27 September, Donnerstag

    Zeit Temperatur Niederschläge Wind Luftdruck Luftfeuchtigkeit
    00:00 +8°C° 0 mm 2 m/S 746 mmHg 59%
    01:00 +8°C° 0 mm 2 m/S 746 mmHg 60%
    02:00 +8°C° 0 mm 2 m/S 746 mmHg 62%
    03:00 +8°C° 0 mm 2 m/S 745 mmHg 63%
    04:00 +7°C° 0 mm 2 m/S 745 mmHg 65%
    05:00 +7°C° 0 mm 2 m/S 745 mmHg 66%
    06:00 +7°C° 0 mm 2 m/S 745 mmHg 67%
    07:00 +7°C° 0 mm 2 m/S 745 mmHg 68%
    08:00 +10°C° 0 mm 2 m/S 745 mmHg 63%
    09:00 +12°C° 0 mm 3 m/S 745 mmHg 58%
    10:00 +14°C° 0 mm 3 m/S 745 mmHg 53%
    11:00 +16°C° 0 mm 3 m/S 745 mmHg 53%
    12:00 +17°C° 0 mm 3 m/S 745 mmHg 53%
    13:00 +19°C° 0 mm 3 m/S 745 mmHg 53%
    14:00 +19°C° 0 mm 3 m/S 744 mmHg 57%
    15:00 +18°C° 0 mm 3 m/S 744 mmHg 61%
    16:00 +18°C° 0 mm 3 m/S 743 mmHg 64%
    17:00 +17°C° 0 mm 2 m/S 743 mmHg 72%
    18:00 +16°C° 0 mm 2 m/S 743 mmHg 79%
    19:00 +14°C° 0 mm 2 m/S 743 mmHg 86%
    20:00 +14°C° 0 mm 2 m/S 743 mmHg 88%
    21:00 +14°C° 0 mm 1 m/S 743 mmHg 90%
    22:00 +14°C° 0 mm 1 m/S 743 mmHg 92%
    23:00 +13°C° 0.3 mm 2 m/S 743 mmHg 93%
    Mehr zeigen